This demonstration page uses our WeatherBlox Daily Observations layout. Learn more.

Left ArrowRight Arrow

Hourly Observations for January 31, 2019

Temp ( °F °C ) Dew Point ( °F °C ) Humidity (%) Winds ( mph kmh ) Pressure ( in mb ) Visibility ( mi km ) Precip ( " mm )
12:57 am 00:57 Cloudy 10 -12.2 3 -16.1 73 73 SSE 12 19 30.15 1021 10 16 0.00 0.00
1:57 am 01:57 Cloudy 11 -11.7 4 -15.6 73 73 SSE 13 20 30.11 1020 10 16 0.00 0.00
2:57 am 02:57 Cloudy 12 -11.1 5 -15 73 73 S 21 33 30.07 1018 10 16 0.00 0.00
3:57 am 03:57 Cloudy 12 -11.1 6 -14.4 77 77 S 15 24 30.05 1018 10 16 0.00 0.00
4:57 am 04:57 Mostly Cloudy 13 -10.6 7 -13.9 77 77 S 14 22 30.04 1017 10 16 0.00 0.00
5:57 am 05:57 Clear 12 -11.1 7 -13.9 80 80 S 13 20 30.06 1018 10 16 0.00 0.00
6:57 am 06:57 Cloudy 12 -11.1 7 -13.9 80 80 S 14 22 30.06 1018 10 16 0.00 0.00
7:57 am 07:57 Partly Cloudy 11 -11.7 7 -13.9 84 84 S 13 20 30.07 1018 10 16 0.00 0.00
9:57 am 09:57 Sunny 17 -8.3 10 -12.2 74 74 SSW 14 22 30.06 1018 10 16 0.00 0.00
10:57 am 10:57 Sunny 22 -5.6 13 -10.6 68 68 SW 12 19 30.06 1018 10 16 0.00 0.00
11:57 am 11:57 Sunny 27 -2.8 16 -8.9 63 63 WSW 9 15 30.05 1018 10 16 0.00 0.00
12:57 pm 12:57 Sunny 31 -0.6 18 -7.8 59 59 SW 13 20 30.01 1016 10 16 0.00 0.00
1:57 pm 13:57 Sunny 34 1.1 18 -7.8 52 52 WSW 10 17 29.99 1016 10 16 0.00 0.00
2:57 pm 14:57 Sunny 39 3.9 19 -7.2 45 45 W 8 13 29.98 1015 10 16 0.00 0.00
3:57 pm 15:57 Sunny 42 5.6 20 -6.7 41 41 WSW 6 9 29.99 1016 10 16 0.00 0.00
4:57 pm 16:57 Sunny 43 6.1 21 -6.1 42 42 Calm 29.99 1016 10 16 0.00 0.00
5:57 pm 17:57 Clear 36 2.2 22 -5.6 57 57 S 8 13 30.01 1016 10 16 0.00 0.00
6:57 pm 18:57 Clear 33 0.6 21 -6.1 61 61 SSW 8 13 30.03 1017 10 16 0.00 0.00
7:57 pm 19:57 Clear 32 0 22 -5.6 66 66 SW 10 17 30.05 1018 10 16 0.00 0.00
8:57 pm 20:57 Clear 31 -0.6 22 -5.6 69 69 SW 8 13 30.06 1018 10 16 0.00 0.00
9:57 pm 21:57 Clear 31 -0.6 22 -5.6 69 69 SW 12 19 30.05 1018 10 16 0.00 0.00
10:57 pm 22:57 Clear 30 -1.1 21 -6.1 69 69 SW 12 19 30.04 1017 10 16 0.00 0.00
11:57 pm 23:57 Clear 29 -1.7 21 -6.1 72 72 SW 12 19 30.05 1018 10 16 0.00 0.00

Powered by AerisWeather